Date String (YYYY-MM-DD hh:mm:ss) UTC,Instrument flags,Ambient pressure (hPa),Sample flow (lpm),Bypass flow (lpm),Sample temperature (°C),Ambient temperature (°C),ASC tube jacket temperature (°C),LED temperature (°C),Box temperature (°C),Sample RH (%),Span deviation,Mass concentration (μg/m³),Mass concentration (μg/m³),Mass concentration (μg/m³)
DateTimeUTC,F1_M11,P_M11,Q1_M11,Q2_M11,T1_M11,T2_M11,T3_M11,T4_M11,T5_M11,U1_M11,ZSPAN_M11,X2_M11,X0_M11,X1_M11
2021-12-13 00:00:00,,0821.2,5.00,0.00,26.7,25.9,00.0,35.7,28.4,05.0,0000.0,0000.52,0001.03,0000.36
2021-12-13 00:01:00,,0821.2,5.00,0.00,26.7,25.9,00.0,35.7,28.3,05.0,0000.0,0000.54,0001.07,0000.37
2021-12-13 00:02:00,,0821.2,5.01,0.00,26.6,25.9,00.0,35.7,28.3,05.0,0000.0,0000.53,0001.04,0000.37
2021-12-13 00:03:00,,0821.2,5.01,0.00,26.6,25.9,00.0,35.7,28.3,05.0,0000.0,0000.52,0001.01,0000.36
2021-12-13 00:04:00,,0821.2,4.99,0.00,26.6,25.8,00.0,35.6,28.3,05.0,0000.0,0000.51,0000.88,0000.36
2021-12-13 00:05:00,,0821.1,5.01,0.00,26.6,25.8,00.0,35.6,28.3,05.0,0000.0,0000.48,0000.69,0000.35
2021-12-13 00:06:00,,0821.2,4.98,0.00,26.6,25.8,00.0,35.6,28.3,05.0,0000.0,0000.49,0000.73,0000.36
2021-12-13 00:07:00,,0821.2,5.01,0.00,26.6,25.8,00.0,35.6,28.3,05.0,0000.0,0000.53,0000.81,0000.36
2021-12-13 00:08:00,,0821.2,5.00,0.00,26.6,25.8,00.0,35.6,28.3,05.0,0000.0,0000.57,0001.12,0000.36
2021-12-13 00:09:00,,0821.1,5.00,0.00,26.6,25.8,00.0,35.6,28.3,05.0,0000.0,0000.57,0001.36,0000.35
2021-12-13 00:10:00,,0821.1,4.99,0.00,26.6,25.8,00.0,35.6,28.3,05.0,0000.0,0000.58,0001.38,0000.35
2021-12-13 00:11:00,,0821.2,4.98,0.00,26.6,25.8,00.0,35.6,28.3,05.1,0000.0,0000.57,0001.34,0000.35
2021-12-13 00:12:00,,0821.2,5.01,0.00,26.6,25.9,00.0,35.6,28.3,05.1,0000.0,0000.54,0001.26,0000.34
2021-12-13 00:13:00,,0821.2,4.99,0.00,26.6,25.9,00.0,35.6,28.3,05.0,0000.0,0000.53,0001.24,0000.35
2021-12-13 00:14:00,,0821.2,5.01,0.00,26.6,25.9,00.0,35.6,28.3,05.0,0000.0,0000.54,0001.25,0000.35
2021-12-13 00:15:00,,0821.3,5.00,0.00,26.6,25.9,00.0,35.6,28.4,05.0,0000.0,0000.54,0001.71,0000.35
2021-12-13 00:16:00,,0821.2,5.00,0.00,26.6,25.9,00.0,35.6,28.4,05.1,0000.0,0000.56,0002.95,0000.35
2021-12-13 00:17:00,,0821.3,5.00,0.00,26.6,25.9,00.0,35.6,28.4,05.1,0000.0,0000.54,0002.96,0000.35
2021-12-13 00:18:00,,0821.4,5.01,0.00,26.6,25.9,00.0,35.6,28.4,05.1,0000.0,0000.50,0002.93,0000.35
2021-12-13 00:19:00,,0821.4,5.00,0.00,26.6,25.9,00.0,35.6,28.4,05.1,0000.0,0000.49,0002.72,0000.35
2021-12-13 00:20:00,,0821.4,5.00,0.00,26.6,25.9,00.0,35.6,28.4,05.1,0000.0,0000.51,0002.56,0000.36
2021-12-13 00:21:00,,0821.4,4.99,0.00,26.6,25.9,00.0,35.6,28.4,05.1,0000.0,0000.54,0002.61,0000.37
2021-12-13 00:22:00,,0821.4,5.01,0.00,26.6,25.9,00.0,35.6,28.4,05.1,0000.0,0000.54,0002.64,0000.37
2021-12-13 00:23:00,,0821.4,4.99,0.00,26.6,25.9,00.0,35.6,28.4,05.1,0000.0,0000.54,0002.65,0000.37
2021-12-13 00:24:00,,0821.4,5.01,0.00,26.7,26.0,00.0,35.6,28.5,05.1,0000.0,0000.56,0002.69,0000.37
2021-12-13 00:25:00,,0821.4,4.98,0.00,26.7,26.0,00.0,35.6,28.5,05.0,0000.0,0000.57,0002.73,0000.38
2021-12-13 00:26:00,,0821.4,5.01,0.00,26.7,26.0,00.0,35.6,28.5,05.1,0000.0,0000.58,0002.19,0000.38
2021-12-13 00:27:00,,0821.5,4.99,0.00,26.7,26.0,00.0,35.6,28.5,05.1,0000.0,0000.58,0001.28,0000.38
2021-12-13 00:28:00,,0821.5,5.01,0.00,26.7,26.0,00.0,35.6,28.5,05.1,0000.0,0000.63,0001.55,0000.39
2021-12-13 00:29:00,,0821.5,5.01,0.00,26.7,26.0,00.0,35.6,28.5,05.1,0000.0,0000.64,0001.56,0000.39
2021-12-13 00:30:00,,0821.5,5.00,0.00,26.7,26.0,00.0,35.6,28.5,05.0,0000.0,0000.65,0001.54,0000.39
2021-12-13 00:31:00,,0821.5,5.00,0.00,26.7,26.0,00.0,35.6,28.5,04.9,0000.0,0000.63,0001.61,0000.38
2021-12-13 00:32:00,,0821.4,5.00,0.00,26.7,26.0,00.0,35.6,28.4,04.9,0000.0,0000.64,0001.63,0000.39
2021-12-13 00:33:00,,0821.5,4.99,0.00,26.7,26.0,00.0,35.6,28.4,05.0,0000.0,0000.64,0002.02,0000.39
2021-12-13 00:34:00,,0821.5,5.01,0.00,26.7,26.0,00.0,35.6,28.4,05.0,0000.0,0000.65,0002.07,0000.38
2021-12-13 00:35:00,,0821.5,5.00,0.00,26.7,26.0,00.0,35.6,28.4,05.0,0000.0,0000.65,0002.05,0000.38
2021-12-13 00:36:00,,0821.5,4.98,0.00,26.7,25.9,00.0,35.6,28.4,05.0,0000.0,0000.66,0002.07,0000.38
2021-12-13 00:37:00,,0821.5,5.01,0.00,26.7,25.9,00.0,35.6,28.4,05.0,0000.0,0000.63,0002.00,0000.38
2021-12-13 00:38:00,,0821.5,5.00,0.00,26.7,26.0,00.0,35.7,28.5,05.0,0000.0,0000.61,0001.74,0000.38
2021-12-13 00:39:00,,0821.5,4.99,0.00,26.7,26.0,00.0,35.7,28.5,05.0,0000.0,0000.56,0002.10,0000.37
2021-12-13 00:40:00,,0821.5,5.01,0.00,26.7,26.0,00.0,35.7,28.5,05.0,0000.0,0000.57,0002.31,0000.38
2021-12-13 00:41:00,,0821.5,4.99,0.00,26.7,26.0,00.0,35.7,28.5,05.0,0000.0,0000.54,0002.46,0000.38
2021-12-13 00:42:00,,0821.4,5.00,0.00,26.7,26.0,00.0,35.7,28.5,05.0,0000.0,0000.56,0002.40,0000.39
2021-12-13 00:43:00,,0821.4,5.00,0.00,26.8,26.0,00.0,35.7,28.5,05.0,0000.0,0000.52,0002.29,0000.38
2021-12-13 00:44:00,,0821.5,5.02,0.00,26.8,26.0,00.0,35.7,28.5,05.0,0000.0,0000.49,0001.86,0000.37
2021-12-13 00:45:00,,0821.4,4.99,0.00,26.8,26.0,00.0,35.7,28.5,05.0,0000.0,0000.48,0001.79,0000.38
2021-12-13 00:46:00,,0821.4,5.01,0.00,26.8,26.0,00.0,35.7,28.6,05.0,0000.0,0000.48,0001.78,0000.38
2021-12-13 00:47:00,,0821.4,4.99,0.00,26.8,26.0,00.0,35.7,28.5,05.0,0000.0,0000.46,0001.73,0000.38
2021-12-13 00:48:00,,0821.4,5.01,0.00,26.8,26.0,00.0,35.7,28.5,05.0,0000.0,0000.46,0001.72,0000.39
2021-12-13 00:49:00,,0821.4,4.99,0.00,26.8,26.0,00.0,35.7,28.5,05.0,0000.0,0000.46,0001.73,0000.39
2021-12-13 00:50:00,,0821.4,5.01,0.00,26.8,26.0,00.0,35.7,28.5,05.0,0000.0,0000.46,0001.19,0000.39
2021-12-13 00:51:00,,0821.4,4.98,0.00,26.8,26.0,00.0,35.7,28.5,05.0,0000.0,0000.46,0000.90,0000.40
2021-12-13 00:52:00,,0821.5,4.99,0.00,26.8,26.1,00.0,35.7,28.6,05.0,0000.0,0000.46,0000.73,0000.40
2021-12-13 00:53:00,,0821.4,5.01,0.00,26.8,26.1,00.0,35.7,28.6,05.0,0000.0,0000.44,0000.89,0000.39
2021-12-13 00:54:00,,0821.4,5.00,0.00,26.8,26.1,00.0,35.7,28.6,05.0,0000.0,0000.45,0000.91,0000.39
2021-12-13 00:55:00,,0821.4,5.00,0.00,26.8,26.1,00.0,35.7,28.6,05.0,0000.0,0000.47,0000.98,0000.40
2021-12-13 00:56:00,,0821.4,5.00,0.00,26.8,26.1,00.0,35.7,28.5,05.1,0000.0,0000.48,0001.02,0000.39
2021-12-13 00:57:00,,0821.5,5.00,0.00,26.8,26.1,00.0,35.8,28.6,05.1,0000.0,0000.48,0001.12,0000.40
2021-12-13 00:58:00,,0821.5,5.00,0.00,26.8,26.1,00.0,35.8,28.5,05.1,0000.0,0000.49,0001.21,0000.40
2021-12-13 00:59:00,,0821.6,5.01,0.00,26.8,26.1,00.0,35.8,28.5,05.1,0000.0,0000.49,0001.21,0000.40
